RH
43 40 32 28 24 22 19 11 5 6 7 8 8 8 9 9 9 9 9 9 9 9 9 10 8 8 7 6 6 5 5 5 5 5 12 22 26 26 23 21 25 30 35
41 36 29 26 23 19 10 6 7 8 9 9 9 9 9 10 10 10 10 10 11 12 11 10 9 7 7 6 6 6 5 5 5 5 5 7 20 27 26 23 22 25 29
37 32 27 24 19 12 8 7 9 9 10 10 10 10 10 10 11 11 12 12 12 13 13 13 10 7 7 7 7 6 6 6 6 5 5 5 8 20 26 24 24 25 30
37 29 26 21 13 10 7 9 10 10 11 11 11 11 11 11 12 12 12 12 12 13 13 12 11 8 7 7 6 7 7 6 7 7 6 6 7 16 25 27 28 29 32
33 27 24 15 11 9 9 10 11 12 12 12 12 12 12 13 15 13 12 13 13 14 17 16 16 13 10 9 8 8 8 8 8 8 8 8 8 16 26 30 32 36 37
30 26 20 13 11 10 11 12 13 14 14 14 14 14 16 18 17 21 17 19 22 21 23 23 22 20 18 18 18 18 16 13 8 9 9 9 9 18 28 36 36 38 41
27 24 16 12 10 11 12 14 16 16 17 18 18 17 17 18 17 21 20 24 25 26 26 25 24 23 22 17 17 18 16 16 11 11 10 12 12 16 30 32 37 43 43
24 22 15 11 12 14 16 17 18 21 20 21 21 20 18 16 15 17 20 26 26 27 27 26 24 22 20 16 16 17 16 13 11 12 11 13 17 19 26 29 35 42 51
24 21 15 10 13 16 19 20 22 24 24 23 23 22 20 17 16 16 20 27 27 28 27 24 23 21 19 15 15 16 16 12 11 12 13 14 20 20 23 27 28 34 43
23 21 15 11 14 18 21 25 26 27 27 26 25 24 22 19 17 17 21 26 28 25 27 25 24 18 15 12 15 17 16 11 10 11 14 16 20 20 21 23 21 26 35
23 21 14 13 16 21 24 27 27 28 29 29 27 26 24 21 19 19 22 23 23 23 23 23 21 14 12 12 13 14 13 11 11 11 13 16 20 22 26 22 19 22 29
23 20 16 16 19 23 26 28 29 30 31 31 30 29 27 22 19 21 22 23 23 22 20 21 20 14 12 13 14 14 13 12 12 12 12 18 22 23 28 28 24 22 30
23 20 16 18 21 24 28 29 31 33 34 35 33 33 29 22 21 22 24 26 24 21 21 19 15 14 14 14 13 12 12 13 13 14 15 19 23 29 30 32 30 29 33
23 21 19 21 24 27 30 32 34 36 37 37 37 35 30 23 22 25 28 28 22 22 19 17 17 14 13 11 11 11 12 13 16 19 22 23 24 31 30 33 35 32 36
25 24 22 24 26 30 33 36 38 39 40 40 39 36 30 25 25 29 29 27 26 22 19 19 15 13 11 10 10 10 12 14 18 22 25 26 26 32 32 36 38 38 40
27 27 26 28 30 34 37 40 42 42 43 43 42 37 31 28 28 30 31 30 26 23 21 17 15 13 11 9 9 12 16 20 24 27 27 29 32 34 37 39 41 43 40
31 31 32 32 34 37 40 42 45 46 47 47 42 36 33 31 32 35 33 29 26 22 19 17 14 13 11 11 11 16 20 24 27 29 30 32 34 36 34 33 32 37 39
33 35 36 37 38 40 43 46 47 48 48 46 41 37 35 36 38 36 32 27 23 21 19 17 14 13 11 12 15 15 22 26 29 32 30 33 33 32 32 32 33 37 39
36 38 40 41 41 43 45 47 49 50 49 45 42 40 39 43 41 35 30 26 23 20 18 16 15 14 12 13 15 18 23 26 29 33 35 35 34 33 36 33 29 34 41
39 43 45 45 43 44 47 50 51 50 49 46 43 43 47 45 39 33 29 27 22 19 17 14 15 17 17 16 17 18 22 27 30 30 36 36 35 32 34 36 32 32 32
42 45 49 49 47 47 49 51 52 53 51 48 46 50 48 41 37 33 29 26 22 21 18 16 17 19 18 17 16 17 21 24 31 31 35 35 36 33 31 37 34 32 32
43 47 53 53 51 49 51 53 54 54 53 50 52 50 42 39 38 34 29 26 23 18 18 17 19 22 21 22 22 21 23 27 35 37 40 37 32 31 31 35 35 35 34
46 51 56 58 53 51 53 55 55 55 54 53 51 43 39 38 35 30 27 25 22 19 18 19 23 23 23 26 30 33 36 40 43 48 46 43 40 34 33 34 39 39 37
50 54 59 59 55 54 57 57 57 56 55 55 45 40 38 34 29 26 24 22 21 17 18 21 23 25 27 33 38 46 52 54 57 55 62 57 47 42 37 38 44 41 40
54 59 62 61 57 57 59 60 59 57 57 48 40 36 33 28 24 21 19 19 15 16 19 20 22 28 36 47 54 57 62 67 69 70 65 62 59 48 44 43 47 42 39
59 63 63 61 58 60 63 64 62 61 52 42 36 32 26 22 19 17 17 15 16 17 19 22 29 41 51 55 59 67 71 73 76 73 66 62 67 54 49 48 46 42 36